Location: Bessat
(45.8735°N, 1.9924°E)
Time: 20:41:15
(UTC+00:00)

ERBS - Pass Details

Date: 11 May 2021
Orbit: 399 x 417 km, 57.0° (Epoch: 20 June)

Event Time Altitude Azimuth Distance (km) Brightness Sun altitude
Rises 23:13:49 0° 310° (NW) 2,358 6.8 -25.5°
Reaches altitude 10° 23:15:54 10° 313° (NW) 1,495 5.7 -25.6°
Enters shadow 23:17:24 24° 317° (NW) 906 4.4 -25.6°
